ROMMA est une association bénévole à but non lucratif. Votre soutien est indispensable : ADHERER à ROMMA ou FAIRE un DON

Le Versoud - (38, Isère)

Vallée du Grésivaudan (220 m)   Longitude: 05° 51' 44" E   Latitude: 45° 13' 06" N Station partenaire n°6
 

Détail journalier du     <<     >>

Température Precipitation Humidité Pression Vent Dir Rafale Dir. rafale Ensol.
Heure (°C) (mm) (%) (hPa) (km/h) (km/h) (min)
01:00 4.10.292102200---0
02:00 2.7093102300---0
03:00 2.1094102300---0
04:00 1.8094102300---0
05:00 1.6095102300---0
06:00 1.4095102300---0
07:00 0.7095102300---0
08:00 0.8096102300---0
09:00 0.8096102300---0
10:00 5.10.291102300---55
11:00 8.9076102200---60
12:00 11.1070102103NNE60
13:00 12.9057102006NE30
14:00 14.4054101906NNE40
15:00 16.2040101806N40
16:00 17.1040101706NNO35
17:00 16.4042101605NO20
18:00 13.7063101600---5
19:00 11.7068101500---0
20:00 10.2071101500---0
21:00 8.1078101500---0
22:00 6.7082101500---0
23:00 5.7084101500---0
minuit 4.8086101400---0

Graphique du 03-03-2019

 

Serveur OMMA